Date_Time,Julian_Date,Latitude,Longitude,Instrument_Depth,U,V,Speed,Direction
(yyyy-mm-dd hh:mn:ss UTC),(JD),(+ deg. North),(+ deg. East),(m),(cm/s),(cm/s),(cm/s),(deg True)
1985-01-25 15:36:00 UTC,2446091.150000,27.4197,-84.6250,0100,12.15,-6.08,13.5863,116.5839
1985-01-25 16:06:00 UTC,2446091.170833,27.4197,-84.6250,0100,21.95,-11.70,24.8735,118.0589
1985-01-25 16:36:00 UTC,2446091.191667,27.4197,-84.6250,0100,29.23,-15.88,33.2651,118.5142
1985-01-25 17:06:00 UTC,2446091.212500,27.4197,-84.6250,0100,26.50,-19.15,32.6951,125.8534
1985-01-25 17:36:00 UTC,2446091.233333,27.4197,-84.6250,0100,22.73,-18.68,29.4210,129.4141
1985-01-25 18:06:00 UTC,2446091.254167,27.4197,-84.6250,0100,22.58,-23.20,32.3743,135.7759
1985-01-25 18:36:00 UTC,2446091.275000,27.4197,-84.6250,0100,19.45,-23.25,30.3128,140.0855
1985-01-25 19:06:00 UTC,2446091.295833,27.4197,-84.6250,0100,20.18,-28.05,34.5548,144.2676
1985-01-25 19:36:00 UTC,2446091.316667,27.4197,-84.6250,0100,17.40,-31.28,35.7938,150.9143
1985-01-25 20:06:00 UTC,2446091.337500,27.4197,-84.6250,0100,18.68,-30.00,35.3404,148.0908
1985-01-25 20:36:00 UTC,2446091.358333,27.4197,-84.6250,0100,18.43,-32.78,37.6058,150.6539
1985-01-25 21:06:00 UTC,2446091.379167,27.4197,-84.6250,0100,14.85,-34.50,37.5602,156.7113
1985-01-25 21:36:00 UTC,2446091.400000,27.4197,-84.6250,0100,12.35,-34.33,36.4838,160.2141
1985-01-25 22:06:00 UTC,2446091.420833,27.4197,-84.6250,0100,11.68,-35.48,37.3531,161.7785
1985-01-25 22:36:00 UTC,2446091.441667,27.4197,-84.6250,0100,5.90,-36.93,37.3983,170.9230
1985-01-25 23:06:00 UTC,2446091.462500,27.4197,-84.6250,0100,2.50,-35.50,35.5879,175.9717
1985-01-25 23:36:00 UTC,2446091.483333,27.4197,-84.6250,0100,-2.60,-34.33,34.4283,184.3311
1985-01-26 00:06:00 UTC,2446091.504167,27.4197,-84.6250,0100,-6.78,-29.25,30.0255,193.0504
1985-01-26 00:36:00 UTC,2446091.525000,27.4197,-84.6250,0100,-6.43,-25.35,26.1528,194.2328
1985-01-26 01:06:00 UTC,2446091.545833,27.4197,-84.6250,0100,-5.25,-20.35,21.0163,194.4660
1985-01-26 01:36:00 UTC,2446091.566667,27.4197,-84.6250,0100,-7.75,-23.43,24.6785,198.3028
1985-01-26 02:06:00 UTC,2446091.587500,27.4197,-84.6250,0100,-8.00,-19.40,20.9848,202.4098
1985-01-26 02:36:00 UTC,2446091.608333,27.4197,-84.6250,0100,-7.13,-18.82,20.1253,200.7493
1985-01-26 03:06:00 UTC,2446091.629167,27.4197,-84.6250,0100,-11.30,-13.88,17.8982,219.1498
1985-01-26 03:36:00 UTC,2446091.650000,27.4197,-84.6250,0100,-10.05,-8.15,12.9393,230.9599
1985-01-26 04:06:00 UTC,2446091.670833,27.4197,-84.6250,0100,-4.65,-3.00,5.5338,237.1715
1985-01-26 04:36:00 UTC,2446091.691667,27.4197,-84.6250,0100,-0.70,-0.40,0.8062,240.2551
1985-01-26 05:06:00 UTC,2446091.712500,27.4197,-84.6250,0100,0.65,0.55,0.8515,49.7636
1985-01-26 05:36:00 UTC,2446091.733333,27.4197,-84.6250,0100,1.13,0.60,1.2794,62.0329
1985-01-26 06:06:00 UTC,2446091.754167,27.4197,-84.6250,0100,0.43,1.68,1.7342,14.3568
1985-01-26 06:36:00 UTC,2446091.775000,27.4197,-84.6250,0100,-1.33,1.07,1.7070,308.8171
1985-01-26 07:06:00 UTC,2446091.795833,27.4197,-84.6250,0100,-0.83,-1.00,1.2996,219.6927
1985-01-26 07:36:00 UTC,2446091.816667,27.4197,-84.6250,0100,-0.05,-0.85,0.8515,183.3665
1985-01-26 08:06:00 UTC,2446091.837500,27.4197,-84.6250,0100,0.00,0.00,0.0000,0.0000
1985-01-26 08:36:00 UTC,2446091.858333,27.4197,-84.6250,0100,0.83,2.30,2.4452,19.8430
1985-01-26 09:06:00 UTC,2446091.879167,27.4197,-84.6250,0100,0.00,0.00,0.0000,0.0000
1985-01-26 09:36:00 UTC,2446091.900000,27.4197,-84.6250,0100,-0.80,-1.03,1.3042,217.8365
1985-01-26 10:06:00 UTC,2446091.920833,27.4197,-84.6250,0100,0.88,0.88,1.2445,45.0000
1985-01-26 10:36:00 UTC,2446091.941667,27.4197,-84.6250,0100,0.18,0.08,0.1970,66.0375
1985-01-26 11:06:00 UTC,2446091.962500,27.4197,-84.6250,0100,0.18,0.10,0.2059,60.9454
1985-01-26 11:36:00 UTC,2446091.983333,27.4197,-84.6250,0100,2.27,0.95,2.4608,67.2906
1985-01-26 12:06:00 UTC,2446092.004167,27.4197,-84.6250,0100,4.20,-0.90,4.2953,102.0947
1985-01-26 12:36:00 UTC,2446092.025000,27.4197,-84.6250,0100,5.93,1.65,6.1553,74.4510
1985-01-26 13:06:00 UTC,2446092.045833,27.4197,-84.6250,0100,9.78,-1.18,9.8509,96.8797
1985-01-26 13:36:00 UTC,2446092.066667,27.4197,-84.6250,0100,12.95,0.10,12.9504,89.5576
1985-01-26 14:06:00 UTC,2446092.087500,27.4197,-84.6250,0100,15.93,-1.60,16.0101,95.7355
1985-01-26 14:36:00 UTC,2446092.108333,27.4197,-84.6250,0100,17.75,-2.23,17.8895,97.1608
1985-01-26 15:06:00 UTC,2446092.129167,27.4197,-84.6250,0100,23.88,-4.33,24.2694,100.2774
1985-01-26 15:36:00 UTC,2446092.150000,27.4197,-84.6250,0100,23.73,-9.28,25.4800,111.3588
1985-01-26 16:06:00 UTC,2446092.170833,27.4197,-84.6250,0100,23.75,-12.35,26.7691,117.4744
1985-01-26 16:36:00 UTC,2446092.191667,27.4197,-84.6250,0100,25.08,-11.75,27.6960,115.1031
1985-01-26 17:06:00 UTC,2446092.212500,27.4197,-84.6250,0100,23.53,-8.98,25.1853,110.8889
1985-01-26 17:36:00 UTC,2446092.233333,27.4197,-84.6250,0100,22.50,-11.55,25.2914,117.1729
1985-01-26 18:06:00 UTC,2446092.254167,27.4197,-84.6250,0100,22.25,-13.75,26.1558,121.7151
1985-01-26 18:36:00 UTC,2446092.275000,27.4197,-84.6250,0100,19.18,-19.53,27.3732,135.5180
1985-01-26 19:06:00 UTC,2446092.295833,27.4197,-84.6250,0100,19.58,-19.55,27.6691,134.9561
1985-01-26 19:36:00 UTC,2446092.316667,27.4197,-84.6250,0100,14.30,-22.25,26.4491,147.2713
1985-01-26 20:06:00 UTC,2446092.337500,27.4197,-84.6250,0100,18.35,-22.63,29.1348,140.9624
1985-01-26 20:36:00 UTC,2446092.358333,27.4197,-84.6250,0100,24.55,-27.30,36.7150,138.0360
1985-01-26 21:06:00 UTC,2446092.379167,27.4197,-84.6250,0100,19.35,-26.68,32.9582,144.0480
1985-01-26 21:36:00 UTC,2446092.400000,27.4197,-84.6250,0100,18.95,-34.68,39.5197,151.3467
1985-01-26 22:06:00 UTC,2446092.420833,27.4197,-84.6250,0100,17.20,-38.63,42.2861,155.9990
1985-01-26 22:36:00 UTC,2446092.441667,27.4197,-84.6250,0100,18.50,-39.10,43.2557,154.6790
1985-01-26 23:06:00 UTC,2446092.462500,27.4197,-84.6250,0100,12.53,-42.60,44.4045,163.6097
1985-01-26 23:36:00 UTC,2446092.483333,27.4197,-84.6250,0100,5.25,-38.30,38.6581,172.1948
1985-01-27 00:06:00 UTC,2446092.504167,27.4197,-84.6250,0100,3.98,-42.50,42.6860,174.6500
1985-01-27 00:36:00 UTC,2446092.525000,27.4197,-84.6250,0100,5.33,-41.10,41.4442,172.6109
1985-01-27 01:06:00 UTC,2446092.545833,27.4197,-84.6250,0100,-3.18,-39.00,39.1294,184.6615
1985-01-27 01:36:00 UTC,2446092.566667,27.4197,-84.6250,0100,-1.58,-45.50,45.5274,181.9888
1985-01-27 02:06:00 UTC,2446092.587500,27.4197,-84.6250,0100,-6.93,-37.60,38.2333,190.4429
1985-01-27 02:36:00 UTC,2446092.608333,27.4197,-84.6250,0100,-10.45,-26.25,28.2536,201.7073
1985-01-27 03:06:00 UTC,2446092.629167,27.4197,-84.6250,0100,-13.80,-23.60,27.3386,210.3168
1985-01-27 03:36:00 UTC,2446092.650000,27.4197,-84.6250,0100,-10.45,-16.00,19.1103,213.1496
1985-01-27 04:06:00 UTC,2446092.670833,27.4197,-84.6250,0100,-8.93,-11.03,14.1918,218.9940
1985-01-27 04:36:00 UTC,2446092.691667,27.4197,-84.6250,0100,-5.18,-6.88,8.6120,216.9763
1985-01-27 05:06:00 UTC,2446092.712500,27.4197,-84.6250,0100,-11.33,-10.45,15.4134,227.3137
1985-01-27 05:36:00 UTC,2446092.733333,27.4197,-84.6250,0100,-3.80,-3.15,4.9358,230.3431
1985-01-27 06:06:00 UTC,2446092.754167,27.4197,-84.6250,0100,-9.65,-4.13,10.4966,246.8301
1985-01-27 06:36:00 UTC,2446092.775000,27.4197,-84.6250,0100,-7.08,-3.85,8.0591,241.4633
1985-01-27 07:06:00 UTC,2446092.795833,27.4197,-84.6250,0100,-4.13,-2.70,4.9343,236.8252
1985-01-27 07:36:00 UTC,2446092.816667,27.4197,-84.6250,0100,-11.05,-1.20,11.1150,263.8021
1985-01-27 08:06:00 UTC,2446092.837500,27.4197,-84.6250,0100,0.70,0.50,0.8602,54.4623
1985-01-27 08:36:00 UTC,2446092.858333,27.4197,-84.6250,0100,-7.95,3.38,8.6387,293.0331
1985-01-27 09:06:00 UTC,2446092.879167,27.4197,-84.6250,0100,-7.05,2.18,7.3794,287.1826
1985-01-27 09:36:00 UTC,2446092.900000,27.4197,-84.6250,0100,-0.70,1.00,1.2207,325.0080
1985-01-27 10:06:00 UTC,2446092.920833,27.4197,-84.6250,0100,-2.18,3.70,4.2945,329.4939
1985-01-27 10:36:00 UTC,2446092.941667,27.4197,-84.6250,0100,-1.83,1.68,2.4842,312.5529
1985-01-27 11:06:00 UTC,2446092.962500,27.4197,-84.6250,0100,-1.65,4.65,4.9341,340.4633
1985-01-27 11:36:00 UTC,2446092.983333,27.4197,-84.6250,0100,0.33,8.03,8.0368,2.3533
1985-01-27 12:06:00 UTC,2446093.004167,27.4197,-84.6250,0100,0.60,6.78,6.8065,5.0572
1985-01-27 12:36:00 UTC,2446093.025000,27.4197,-84.6250,0100,1.55,4.03,4.3178,21.0375
1985-01-27 13:06:00 UTC,2446093.045833,27.4197,-84.6250,0100,2.10,3.80,4.3417,28.9264
1985-01-27 13:36:00 UTC,2446093.066667,27.4197,-84.6250,0100,5.98,1.60,6.1903,75.0209
1985-01-27 14:06:00 UTC,2446093.087500,27.4197,-84.6250,0100,8.60,3.35,9.2294,68.7173
1985-01-27 14:36:00 UTC,2446093.108333,27.4197,-84.6250,0100,9.90,0.10,9.9005,89.4213
1985-01-27 15:06:00 UTC,2446093.129167,27.4197,-84.6250,0100,21.50,1.80,21.5752,85.2143
1985-01-27 15:36:00 UTC,2446093.150000,27.4197,-84.6250,0100,19.45,-3.55,19.7713,100.3437
1985-01-27 16:06:00 UTC,2446093.170833,27.4197,-84.6250,0100,18.88,-3.25,19.1577,99.7672
1985-01-27 16:36:00 UTC,2446093.191667,27.4197,-84.6250,0100,18.80,-6.10,19.7649,107.9766
1985-01-27 17:06:00 UTC,2446093.212500,27.4197,-84.6250,0100,19.95,-8.23,21.5809,112.4177
1985-01-27 17:36:00 UTC,2446093.233333,27.4197,-84.6250,0100,17.95,-13.05,22.1925,126.0179
1985-01-27 18:06:00 UTC,2446093.254167,27.4197,-84.6250,0100,16.03,-10.43,19.1245,123.0502
1985-01-27 18:36:00 UTC,2446093.275000,27.4197,-84.6250,0100,23.48,-13.98,27.3267,120.7696
1985-01-27 19:06:00 UTC,2446093.295833,27.4197,-84.6250,0100,19.85,-17.03,26.1542,130.6274
1985-01-27 19:36:00 UTC,2446093.316667,27.4197,-84.6250,0100,19.20,-16.85,25.5453,131.2703
1985-01-27 20:06:00 UTC,2446093.337500,27.4197,-84.6250,0100,20.15,-15.73,25.5628,127.9772
1985-01-27 20:36:00 UTC,2446093.358333,27.4197,-84.6250,0100,12.98,-15.70,20.3708,140.4177
1985-01-27 21:06:00 UTC,2446093.379167,27.4197,-84.6250,0100,11.90,-16.53,20.3679,144.2498
1985-01-27 21:36:00 UTC,2446093.400000,27.4197,-84.6250,0100,10.28,-17.60,20.3823,149.7112
1985-01-27 22:06:00 UTC,2446093.420833,27.4197,-84.6250,0100,5.78,-16.30,17.2945,160.4754
1985-01-27 22:36:00 UTC,2446093.441667,27.4197,-84.6250,0100,6.45,-19.30,20.3493,161.5205
1985-01-27 23:06:00 UTC,2446093.462500,27.4197,-84.6250,0100,4.35,-19.25,19.7354,167.2665
1985-01-27 23:36:00 UTC,2446093.483333,27.4197,-84.6250,0100,-1.35,-19.07,19.1177,184.0493
1985-01-28 00:06:00 UTC,2446093.504167,27.4197,-84.6250,0100,-2.98,-17.65,17.8998,189.5834
1985-01-28 00:36:00 UTC,2446093.525000,27.4197,-84.6250,0100,-5.00,-19.07,19.7146,194.6918
1985-01-28 01:06:00 UTC,2446093.545833,27.4197,-84.6250,0100,-6.40,-19.38,20.4094,198.2752
1985-01-28 01:36:00 UTC,2446093.566667,27.4197,-84.6250,0100,-9.05,-22.65,24.3911,201.7796
1985-01-28 02:06:00 UTC,2446093.587500,27.4197,-84.6250,0100,-7.80,-20.80,22.2144,200.5561
1985-01-28 02:36:00 UTC,2446093.608333,27.4197,-84.6250,0100,-7.95,-18.75,20.3658,202.9769
1985-01-28 03:06:00 UTC,2446093.629167,27.4197,-84.6250,0100,-9.00,-18.28,20.3754,206.2130
1985-01-28 03:36:00 UTC,2446093.650000,27.4197,-84.6250,0100,-5.90,-11.55,12.9697,207.0590
1985-01-28 04:06:00 UTC,2446093.670833,27.4197,-84.6250,0100,-8.65,-14.28,16.6955,211.2051
1985-01-28 04:36:00 UTC,2446093.691667,27.4197,-84.6250,0100,-8.83,-11.10,14.1838,218.5021
1985-01-28 05:06:00 UTC,2446093.712500,27.4197,-84.6250,0100,-7.83,-7.90,11.1229,224.7450
1985-01-28 05:36:00 UTC,2446093.733333,27.4197,-84.6250,0100,-7.95,-6.85,10.4940,229.2507
1985-01-28 06:06:00 UTC,2446093.754167,27.4197,-84.6250,0100,-6.05,-6.20,8.6627,224.2985
1985-01-28 06:36:00 UTC,2446093.775000,27.4197,-84.6250,0100,-0.40,-0.48,0.6248,219.8056
1985-01-28 07:06:00 UTC,2446093.795833,27.4197,-84.6250,0100,-0.75,-1.40,1.5882,208.1786
1985-01-28 07:36:00 UTC,2446093.816667,27.4197,-84.6250,0100,-1.48,-1.13,1.8621,232.6378
1985-01-28 08:06:00 UTC,2446093.837500,27.4197,-84.6250,0100,-3.93,-2.95,4.9140,233.1068
1985-01-28 08:36:00 UTC,2446093.858333,27.4197,-84.6250,0100,-7.13,-3.70,8.0329,242.5737
1985-01-28 09:06:00 UTC,2446093.879167,27.4197,-84.6250,0100,-9.65,-2.05,9.8653,258.0067
1985-01-28 09:36:00 UTC,2446093.900000,27.4197,-84.6250,0100,-15.65,3.48,16.0322,282.5366
1985-01-28 10:06:00 UTC,2446093.920833,27.4197,-84.6250,0100,-9.55,4.30,10.4734,294.2402
1985-01-28 10:36:00 UTC,2446093.941667,27.4197,-84.6250,0100,-7.58,4.18,8.6561,298.8746
1985-01-28 11:06:00 UTC,2446093.962500,27.4197,-84.6250,0100,-1.80,1.65,2.4418,312.5104
1985-01-28 11:36:00 UTC,2446093.983333,27.4197,-84.6250,0100,0.00,0.00,0.0000,0.0000
1985-01-28 12:06:00 UTC,2446094.004167,27.4197,-84.6250,0100,1.03,-0.78,1.2920,127.1360
1985-01-28 12:36:00 UTC,2446094.025000,27.4197,-84.6250,0100,1.75,-1.25,2.1506,125.5377
1985-01-28 13:06:00 UTC,2446094.045833,27.4197,-84.6250,0100,0.85,-0.23,0.8806,105.1410
1985-01-28 13:36:00 UTC,2446094.066667,27.4197,-84.6250,0100,0.00,0.00,0.0000,0.0000
1985-01-28 14:06:00 UTC,2446094.087500,27.4197,-84.6250,0100,2.40,0.60,2.4739,75.9638
1985-01-28 14:36:00 UTC,2446094.108333,27.4197,-84.6250,0100,-2.05,0.60,2.1360,286.3138
1985-01-28 15:06:00 UTC,2446094.129167,27.4197,-84.6250,0100,-0.38,1.20,1.2587,342.4287
1985-01-28 15:36:00 UTC,2446094.150000,27.4197,-84.6250,0100,-1.07,0.68,1.2678,302.4365
1985-01-28 16:06:00 UTC,2446094.170833,27.4197,-84.6250,0100,7.68,-2.25,8.0028,106.3289
1985-01-28 16:36:00 UTC,2446094.191667,27.4197,-84.6250,0100,14.45,-6.98,16.0475,115.7826
1985-01-28 17:06:00 UTC,2446094.212500,27.4197,-84.6250,0100,8.43,-5.13,9.8682,121.3222
1985-01-28 17:36:00 UTC,2446094.233333,27.4197,-84.6250,0100,12.43,-12.70,17.7706,135.6156
1985-01-28 18:06:00 UTC,2446094.254167,27.4197,-84.6250,0100,5.98,-3.18,6.7729,118.0028
1985-01-28 18:36:00 UTC,2446094.275000,27.4197,-84.6250,0100,2.80,-2.40,3.6878,130.6013
1985-01-28 19:06:00 UTC,2446094.295833,27.4197,-84.6250,0100,1.63,-3.33,3.7075,153.9187
1985-01-28 19:36:00 UTC,2446094.316667,27.4197,-84.6250,0100,1.38,-1.53,2.0604,137.9508
1985-01-28 20:06:00 UTC,2446094.337500,27.4197,-84.6250,0100,1.53,-3.38,3.7102,155.6455
1985-01-28 20:36:00 UTC,2446094.358333,27.4197,-84.6250,0100,0.20,-0.78,0.8052,165.6186
1985-01-28 21:06:00 UTC,2446094.379167,27.4197,-84.6250,0100,0.00,0.00,0.0000,0.0000
1985-01-28 21:36:00 UTC,2446094.400000,27.4197,-84.6250,0100,5.90,-7.13,9.2546,140.3926
1985-01-28 22:06:00 UTC,2446094.420833,27.4197,-84.6250,0100,2.20,-3.73,4.3305,149.4674
1985-01-28 22:36:00 UTC,2446094.441667,27.4197,-84.6250,0100,1.90,-4.55,4.9308,157.3354
1985-01-28 23:06:00 UTC,2446094.462500,27.4197,-84.6250,0100,1.45,-4.70,4.9186,162.8544
1985-01-28 23:36:00 UTC,2446094.483333,27.4197,-84.6250,0100,0.55,-3.65,3.6912,171.4308
1985-01-29 00:06:00 UTC,2446094.504167,27.4197,-84.6250,0100,-1.75,-12.83,12.9488,187.7672
1985-01-29 00:36:00 UTC,2446094.525000,27.4197,-84.6250,0100,-2.33,-14.65,14.8341,189.0369
1985-01-29 01:06:00 UTC,2446094.545833,27.4197,-84.6250,0100,-2.90,-14.53,14.8166,191.2872
1985-01-29 01:36:00 UTC,2446094.566667,27.4197,-84.6250,0100,-1.93,-11.55,11.7101,189.4865
1985-01-29 02:06:00 UTC,2446094.587500,27.4197,-84.6250,0100,-5.88,-18.18,19.1072,197.9229
1985-01-29 02:36:00 UTC,2446094.608333,27.4197,-84.6250,0100,-6.93,-15.83,17.2804,203.6427
1985-01-29 03:06:00 UTC,2446094.629167,27.4197,-84.6250,0100,-7.65,-17.53,19.1265,203.5762
1985-01-29 03:36:00 UTC,2446094.650000,27.4197,-84.6250,0100,-7.33,-12.90,14.8371,209.6060
1985-01-29 04:06:00 UTC,2446094.670833,27.4197,-84.6250,0100,-6.08,-9.33,11.1362,213.0907
1985-01-29 04:36:00 UTC,2446094.691667,27.4197,-84.6250,0100,-6.90,-9.48,11.7252,216.0489
1985-01-29 05:06:00 UTC,2446094.712500,27.4197,-84.6250,0100,-6.10,-5.20,8.0156,229.5538
1985-01-29 05:36:00 UTC,2446094.733333,27.4197,-84.6250,0100,-6.93,-5.15,8.6341,233.3823
1985-01-29 06:06:00 UTC,2446094.754167,27.4197,-84.6250,0100,-3.43,-1.38,3.6972,248.0835
1985-01-29 06:36:00 UTC,2446094.775000,27.4197,-84.6250,0100,-6.08,-3.05,6.8021,243.3596
1985-01-29 07:06:00 UTC,2446094.795833,27.4197,-84.6250,0100,-10.73,-2.88,11.1098,254.9756
1985-01-29 07:36:00 UTC,2446094.816667,27.4197,-84.6250,0100,-8.63,0.15,8.6313,270.9958
1985-01-29 08:06:00 UTC,2446094.837500,27.4197,-84.6250,0100,-10.95,-1.73,11.0858,261.0220
1985-01-29 08:36:00 UTC,2446094.858333,27.4197,-84.6250,0100,-8.33,-2.35,8.6551,254.2456
1985-01-29 09:06:00 UTC,2446094.879167,27.4197,-84.6250,0100,-1.07,-0.58,1.2171,241.5398
1985-01-29 09:36:00 UTC,2446094.900000,27.4197,-84.6250,0100,-2.15,-2.18,3.0618,224.6030
1985-01-29 10:06:00 UTC,2446094.920833,27.4197,-84.6250,0100,0.18,0.15,0.2343,50.1944
1985-01-29 10:36:00 UTC,2446094.941667,27.4197,-84.6250,0100,-1.98,-2.53,3.2127,218.0471
1985-01-29 11:06:00 UTC,2446094.962500,27.4197,-84.6250,0100,-1.80,-3.20,3.6715,209.3578
1985-01-29 11:36:00 UTC,2446094.983333,27.4197,-84.6250,0100,-1.28,-2.13,2.4850,211.0033
1985-01-29 12:06:00 UTC,2446095.004167,27.4197,-84.6250,0100,-2.75,-5.53,6.1760,206.4406
1985-01-29 12:36:00 UTC,2446095.025000,27.4197,-84.6250,0100,-3.53,-10.53,11.1059,198.5329
1985-01-29 13:06:00 UTC,2446095.045833,27.4197,-84.6250,0100,-2.90,-5.45,6.1735,208.0179
1985-01-29 13:36:00 UTC,2446095.066667,27.4197,-84.6250,0100,-2.35,-5.68,6.1469,202.4765
1985-01-29 14:06:00 UTC,2446095.087500,27.4197,-84.6250,0100,-2.38,-7.65,8.0117,197.2815
1985-01-29 14:36:00 UTC,2446095.108333,27.4197,-84.6250,0100,-3.28,-9.93,10.4577,198.2790
1985-01-29 15:06:00 UTC,2446095.129167,27.4197,-84.6250,0100,-2.33,-8.33,8.6497,195.6269
1985-01-29 15:36:00 UTC,2446095.150000,27.4197,-84.6250,0100,-2.65,-8.83,9.2191,196.7052
1985-01-29 16:06:00 UTC,2446095.170833,27.4197,-84.6250,0100,-2.13,-9.68,9.9116,192.4097
1985-01-29 16:36:00 UTC,2446095.191667,27.4197,-84.6250,0100,-0.70,-8.00,8.0306,185.0007
1985-01-29 17:06:00 UTC,2446095.212500,27.4197,-84.6250,0100,0.35,-9.23,9.2366,177.8284
1985-01-29 17:36:00 UTC,2446095.233333,27.4197,-84.6250,0100,-1.60,-9.13,9.2691,189.9400
1985-01-29 18:06:00 UTC,2446095.254167,27.4197,-84.6250,0100,-3.00,-9.40,9.8671,197.7004
1985-01-29 18:36:00 UTC,2446095.275000,27.4197,-84.6250,0100,-8.20,-17.30,19.1450,205.3604
1985-01-29 19:06:00 UTC,2446095.295833,27.4197,-84.6250,0100,-8.75,-17.70,19.7447,206.3055
1985-01-29 19:36:00 UTC,2446095.316667,27.4197,-84.6250,0100,-1.23,-12.28,12.3414,185.7198
1985-01-29 20:06:00 UTC,2446095.337500,27.4197,-84.6250,0100,-8.03,-19.38,20.9777,202.5064
1985-01-29 20:36:00 UTC,2446095.358333,27.4197,-84.6250,0100,-2.25,-12.10,12.3074,190.5339
1985-01-29 21:06:00 UTC,2446095.379167,27.4197,-84.6250,0100,-7.05,-10.90,12.9812,212.8944
1985-01-29 21:36:00 UTC,2446095.400000,27.4197,-84.6250,0100,-10.95,-10.83,15.4010,225.3157
1985-01-29 22:06:00 UTC,2446095.420833,27.4197,-84.6250,0100,-8.35,-10.70,13.5725,217.9675
1985-01-29 22:36:00 UTC,2446095.441667,27.4197,-84.6250,0100,-9.48,-12.95,16.0491,216.2059
1985-01-29 23:06:00 UTC,2446095.462500,27.4197,-84.6250,0100,-8.18,-10.83,13.5721,217.0641
1985-01-29 23:36:00 UTC,2446095.483333,27.4197,-84.6250,0100,-9.60,-11.28,14.8121,220.3999
1985-01-30 00:06:00 UTC,2446095.504167,27.4197,-84.6250,0100,-9.23,-8.18,12.3331,228.4513
1985-01-30 00:36:00 UTC,2446095.525000,27.4197,-84.6250,0100,-10.35,-9.70,14.1849,226.8568
1985-01-30 01:06:00 UTC,2446095.545833,27.4197,-84.6250,0100,-14.73,-13.18,19.7658,228.1787
1985-01-30 01:36:00 UTC,2446095.566667,27.4197,-84.6250,0100,-11.53,-10.23,15.4141,228.4189
1985-01-30 02:06:00 UTC,2446095.587500,27.4197,-84.6250,0100,-13.13,-10.25,16.6571,232.0225
1985-01-30 02:36:00 UTC,2446095.608333,27.4197,-84.6250,0100,-11.45,-9.35,14.7826,230.7651
1985-01-30 03:06:00 UTC,2446095.629167,27.4197,-84.6250,0100,-6.28,-5.00,8.0274,231.4740
1985-01-30 03:36:00 UTC,2446095.650000,27.4197,-84.6250,0100,-7.18,-3.63,8.0455,243.1802
1985-01-30 04:06:00 UTC,2446095.670833,27.4197,-84.6250,0100,-7.40,-0.30,7.4061,267.6785
1985-01-30 04:36:00 UTC,2446095.691667,27.4197,-84.6250,0100,-11.03,-1.40,11.1185,262.7663
1985-01-30 05:06:00 UTC,2446095.712500,27.4197,-84.6250,0100,-9.03,-2.05,9.2598,257.2094
1985-01-30 05:36:00 UTC,2446095.733333,27.4197,-84.6250,0100,-5.40,-1.38,5.5735,255.6646
1985-01-30 06:06:00 UTC,2446095.754167,27.4197,-84.6250,0100,-2.88,-1.15,3.1011,248.2329
1985-01-30 06:36:00 UTC,2446095.775000,27.4197,-84.6250,0100,-2.38,-0.80,2.5109,251.4207
1985-01-30 07:06:00 UTC,2446095.795833,27.4197,-84.6250,0100,0.00,0.00,0.0000,0.0000
1985-01-30 07:36:00 UTC,2446095.816667,27.4197,-84.6250,0100,1.28,0.28,1.3103,77.6609
1985-01-30 08:06:00 UTC,2446095.837500,27.4197,-84.6250,0100,1.70,-0.38,1.7420,102.6002
1985-01-30 08:36:00 UTC,2446095.858333,27.4197,-84.6250,0100,1.15,-0.60,1.2971,117.5528
1985-01-30 09:06:00 UTC,2446095.879167,27.4197,-84.6250,0100,0.83,-2.43,2.5678,161.1417
1985-01-30 09:36:00 UTC,2446095.900000,27.4197,-84.6250,0100,1.50,-2.10,2.5807,144.4623
1985-01-30 10:06:00 UTC,2446095.920833,27.4197,-84.6250,0100,1.55,-2.58,3.0098,149.0036
1985-01-30 10:36:00 UTC,2446095.941667,27.4197,-84.6250,0100,-0.13,-1.25,1.2567,185.9374
1985-01-30 11:06:00 UTC,2446095.962500,27.4197,-84.6250,0100,-0.28,-0.80,0.8476,199.2901
1985-01-30 11:36:00 UTC,2446095.983333,27.4197,-84.6250,0100,-0.43,-1.20,1.2747,199.7143
1985-01-30 12:06:00 UTC,2446096.004167,27.4197,-84.6250,0100,-0.83,0.98,1.2843,319.7375
1985-01-30 12:36:00 UTC,2446096.025000,27.4197,-84.6250,0100,0.45,-0.43,0.6224,133.6980
1985-01-30 13:06:00 UTC,2446096.045833,27.4197,-84.6250,0100,1.00,-0.75,1.2500,126.8699
1985-01-30 13:36:00 UTC,2446096.066667,27.4197,-84.6250,0100,0.75,-0.95,1.2104,141.7098
1985-01-30 14:06:00 UTC,2446096.087500,27.4197,-84.6250,0100,2.10,-5.13,5.5432,157.7379
1985-01-30 14:36:00 UTC,2446096.108333,27.4197,-84.6250,0100,0.43,-3.68,3.7050,173.3353
1985-01-30 15:06:00 UTC,2446096.129167,27.4197,-84.6250,0100,-0.43,-1.15,1.2278,200.5014
1985-01-30 15:36:00 UTC,2446096.150000,27.4197,-84.6250,0100,-0.30,-4.90,4.9092,183.5035
1985-01-30 16:06:00 UTC,2446096.170833,27.4197,-84.6250,0100,-2.15,-5.78,6.1669,200.4038
1985-01-30 16:36:00 UTC,2446096.191667,27.4197,-84.6250,0100,-2.33,-4.35,4.9347,208.1749
1985-01-30 17:06:00 UTC,2446096.212500,27.4197,-84.6250,0100,-3.45,-3.48,4.9003,224.7520
1985-01-30 17:36:00 UTC,2446096.233333,27.4197,-84.6250,0100,-4.23,-2.53,4.9289,239.1160
1985-01-30 18:06:00 UTC,2446096.254167,27.4197,-84.6250,0100,-4.68,-3.00,5.5590,237.3391
1985-01-30 18:36:00 UTC,2446096.275000,27.4197,-84.6250,0100,-7.83,-3.63,8.6305,245.1275
1985-01-30 19:06:00 UTC,2446096.295833,27.4197,-84.6250,0100,-8.53,-3.58,9.2508,247.2325
1985-01-30 19:36:00 UTC,2446096.316667,27.4197,-84.6250,0100,-8.75,-4.55,9.8623,242.5256
1985-01-30 20:06:00 UTC,2446096.337500,27.4197,-84.6250,0100,-4.80,-2.80,5.5570,239.7436
1985-01-30 20:36:00 UTC,2446096.358333,27.4197,-84.6250,0100,-2.30,-0.85,2.4520,249.7175
1985-01-30 21:06:00 UTC,2446096.379167,27.4197,-84.6250,0100,-2.88,-1.20,3.1200,247.3801
1985-01-30 21:36:00 UTC,2446096.400000,27.4197,-84.6250,0100,-2.65,-1.60,3.0956,238.8775
1985-01-30 22:06:00 UTC,2446096.420833,27.4197,-84.6250,0100,-3.38,-2.70,4.3260,231.3816
1985-01-30 22:36:00 UTC,2446096.441667,27.4197,-84.6250,0100,-3.83,-4.00,5.5380,223.7562
1985-01-30 23:06:00 UTC,2446096.462500,27.4197,-84.6250,0100,-6.65,-4.50,8.0295,235.9141
1985-01-30 23:36:00 UTC,2446096.483333,27.4197,-84.6250,0100,-9.45,-4.63,10.5233,243.8976
1985-01-31 00:06:00 UTC,2446096.504167,27.4197,-84.6250,0100,-9.25,-3.40,9.8551,249.8182
1985-01-31 00:36:00 UTC,2446096.525000,27.4197,-84.6250,0100,-10.28,-4.18,11.0973,247.8726
1985-01-31 01:06:00 UTC,2446096.545833,27.4197,-84.6250,0100,-9.60,-4.23,10.4906,246.2205
1985-01-31 01:36:00 UTC,2446096.566667,27.4197,-84.6250,0100,-9.68,-4.03,10.4854,247.3970
1985-01-31 02:06:00 UTC,2446096.587500,27.4197,-84.6250,0100,-14.50,-6.88,16.0494,244.6165
1985-01-31 02:36:00 UTC,2446096.608333,27.4197,-84.6250,0100,-18.75,-9.40,20.9743,243.3739
1985-01-31 03:06:00 UTC,2446096.629167,27.4197,-84.6250,0100,-18.75,-7.98,20.3775,246.9454
1985-01-31 03:36:00 UTC,2446096.650000,27.4197,-84.6250,0100,-17.28,-4.55,17.8690,255.2483
1985-01-31 04:06:00 UTC,2446096.670833,27.4197,-84.6250,0100,-18.50,-7.00,19.7800,249.2744